Location: Haliburton Scout Reserve
(45.0900°N, 78.3200°W)
Time: 02:32:42
(UTC-04:00)

DIWATA 2B (PO-101) - Pass Details

Date: 23 May 2022
Orbit: 585 x 597 km, 98.0° (Epoch: 27 June)

Event Time Altitude Azimuth Distance (km) Brightness Sun altitude
Exits shadow 01:50:19 11° 103° (ESE) 1,855 ? -23.7°
Maximum altitude 01:52:52 18° 63° (ENE) 1,489 ? -23.6°
Drops below altitude 10° 01:55:37 10° 22° (NNE) 1,923 ? -23.5°
Sets 01:58:22 0° 3° (N) 2,832 ? -23.4°
